Warning: Javascript must be enabled to use all the features on this page!


Page Loading - Please Wait...

Click to hideNews Bulletins

Peak Streamflow for the Nation

USGS 11109600 PIRU CREEK ABOVE LAKE PIRU CA

Ventura County, California
Hydrologic Unit Code 18070102
Latitude  34°31'23", Longitude 118°45'22" NAD27
Drainage area 372  square miles
Gage datum 1,058.55 feet above NGVD29
Output formats
Table
Graph
Tab-separated file
peakfq (watstore) format
Reselect output format
Water
Year
Date Gage
Height
(feet)
Stream-
flow
(cfs)
1938 1938-03-02   35,0007
1956 1956-01-27 6.21 1,230
1957 1957-01-13 7.70 3,600
1958 1958-04-03 10.35 8,600
1959 1959-02-16 7.35 3,820
1960 1960-01-10 3.19 292
1961 1960-11-06 3.78 528
1962 1962-02-10 12.20 12,200
1963 1963-02-09 3.73 512
1964 1963-11-20 3.26 318
1965 1965-04-09 3.56 484
1966 1965-12-29 10.10 9,000
1967 1966-12-06 8.26 4,640
1968 1967-11-20 4.67 912
1969 1969-02-25 18.60 31,200
1970 1970-02-28 8.10 2,150
1971 1970-11-29 11.03 9,860
1972 1971-12-24 6.46 2,2006
1973 1973-02-11 6.496 7,5306
1974 1974-01-07 4.15 2,6506
1975 1974-12-04 6.02 1,7206
1976 1976-02-09 5.56 7066
1977 1977-05-08 5.26 3016
1978 1978-03-04 10.20 11,0002,6
1979 1979-03-28 6.03 2,0606
1980 1980-02-16 7.92 6,9006
1981 1981-03-05 3.54 4316
1982 1982-04-01 3.72 5206
1983 1983-03-01 11.36 20,8006
1984 1983-12-25 5.30 1,8506
1985 1984-12-19 4.18 5836
1986 1986-02-15 6.89 4,4106
1987 1987-03-05 3.82 1726
1988 1988-02-29 7.80 4,9606
1989 1988-12-21 4.25 1946
1990 1990-02-17 4.35 2266
1991 1991-03-19 7.00 2,4306
1992 1992-02-12 10.39 14,9006
1993 1993-02-26 7.91 5,9406
1994 1994-02-07 3.98 5706
1995 1995-01-10 11.05 18,8006
1996 1996-02-20   8002,6
1997 1996-12-22 4.12 6196
1998 1998-02-23 13.38 38,0006
1999 1998-11-28 2.95 1656
2000 2000-02-23 5.18 1,1706
2001 2001-03-05 8.88 10,1006
2002 2001-11-24 1.91 50.06
2003 2003-02-12 4.31 6416
2004 2004-02-26 5.65 2,0306
2005 2005-01-10 16.39 40,0006
2006 2006-04-04 9.14 6,3106
2007 2007-01-28 5.10 3366
2008 2008-01-27 9.99 6,2506
2009 2008-11-01 7.34 1,0406
2010 2010-01-20 8.702 3,4406
2011 2011-03-20 9.59 5,6306
2012 2012-03-17 5.34 2856
2013 2012-11-17 4.41 89.06
2014 2014-02-28 6.93 2,2206
2015 2014-12-12 5.60 5916
2016 2016-01-31 5.57 5626
2017 2017-02-18 12.42 8,1206
2018 2018-03-22 4.71 4546
2019 2019-03-06 7.62R 3,6406,R
2020 2020-03-16 4.20 5126
?
  Peak Gage-Height Qualification Codes.
?
  Peak Streamflow Qualification Codes.